User: anonymous   Login
Location: Castifao
(42.5040°N, 9.1124°E)
Time: 12:24:08
(UTC+00:00)
Language:

DELTA 2 R/B (1) - Orbit

View from above orbital plane
View from above orbital plane
View from above satellite
View from above satellite

Ground track
Ground track

The orbit data is extracted from the following two-line orbital elements,

1 27665U 03005C   20088.86344753 -.00000026 +00000-0 +23582-4 0  9995
2 27665 039.5772 338.2999 0007549 025.3930 025.1321 14.28520732896114
Epoch (UTC): 28 March 2020 20:43:21
Eccentricity: 0.0007549
inclination: 39.5772°
perigee height: 791 km
apogee height: 802 km
right ascension of ascending node: 338.2999°
argument of perigee: 25.3930°
revolutions per day: 14.28520732
mean anomaly at epoch: 25.1321°
orbit number at epoch: 89611

The dashed part of the orbit path shows where the satellite is in the earth's shadow,  

DLR